Flag for Poland Weather past 2 weeks in Gdynia, Poland

Now
45 °F

Clear.


Feels Like: 45 °F
Forecast: 45 / 69 °F
Wind: No wind

Location: Gdansk-Rebiechowo

Current Time: May 25, 2015 at 12:21:13 AM

Latest Report: May 24, 2015 at 11:30 PM


Visibility: 10 mi

Pressure: 30.07 "Hg

Humidity: 93%

Dew point: 43 °F

Location of GdyniaLocation

Historic Weather in Gdynia — Graph

°F

Gdynia temperature yesterday

Maximum temperature yesterday: 61 °F (at 1:00 PM)
Minimum temperature yesterday: 37 °F (at 5:30 AM)
Average temperature yesterday: 50 °F

Past Weeks' High & Low Weather Summary

 TemperatureHumidityPressure
High73 °F (May 12, 2:30 PM)100% (May 10, 3:00 AM)30.36 "Hg (May 10, 3:00 AM)
Low37 °F (May 24, 5:30 AM)24% (May 15, 5:00 PM)29.59 "Hg (May 19, 11:00 AM)
Average52 °F73%29.99 "Hg
* Reported May 9 11:00 PM — May 24 11:00 PM, Gdynia, Weather by CustomWeather, © 2015

Note: Actual official high and low records may vary slightly from our data, if they occured in-between our weather recording intervals... More about our weather records

Advertising

Gdynia weather history for previous 24 hours

 ConditionsComfort  
Time TempWeatherWind HumidityBarometerVisibility
11:00 PM
Sun, May 24
46 °FClear.1 mph93%30.07 "Hg10 mi
10:30 PM46 °FClear.2 mph87%30.07 "Hg10 mi
10:00 PM46 °FClear.5 mph87%30.07 "Hg10 mi
9:30 PM48 °FSunny.3 mph87%30.07 "Hg10 mi
9:00 PM50 °FSunny.2 mph82%30.07 "Hg10 mi
8:30 PM50 °FPassing clouds.3 mph82%30.07 "HgN/A
8:00 PM52 °FPassing clouds.5 mph77%30.07 "HgN/A
7:30 PM52 °FPassing clouds.6 mph77%30.07 "HgN/A
7:00 PM54 °FPassing clouds.8 mph72%30.07 "HgN/A
6:30 PM54 °FPassing clouds.8 mph72%30.07 "HgN/A
6:00 PM54 °FPassing clouds.9 mph72%30.07 "HgN/A
5:30 PM55 °FPassing clouds.10 mph67%30.07 "HgN/A
5:00 PM55 °FPassing clouds.10 mph72%30.07 "HgN/A
4:30 PM57 °FPassing clouds.12 mph67%30.07 "HgN/A
4:00 PM57 °FPassing clouds.12 mph67%30.09 "HgN/A
3:30 PM59 °FPassing clouds.12 mph63%30.09 "HgN/A
3:00 PM59 °FPassing clouds.10 mph63%30.09 "HgN/A
2:30 PM59 °FPassing clouds.10 mph63%30.09 "HgN/A
2:00 PM59 °FPassing clouds.9 mph68%30.09 "HgN/A
1:30 PM61 °FPassing clouds.6 mph55%30.09 "HgN/A
1:00 PM61 °FPassing clouds.5 mph52%30.09 "HgN/A
12:30 PM59 °FPassing clouds.6 mph59%30.09 "HgN/A
12:00 PM59 °FPassing clouds.5 mph59%30.09 "HgN/A
11:30 AM57 °FPassing clouds.5 mph63%30.09 "HgN/A
11:00 AM57 °FPassing clouds.7 mph63%30.09 "HgN/A
10:30 AM55 °FPassing clouds.7 mph67%30.09 "HgN/A
10:00 AM54 °FPassing clouds.7 mph72%30.09 "HgN/A
9:30 AM54 °FPassing clouds.7 mph67%30.09 "HgN/A
9:00 AM52 °FPassing clouds.5 mph82%30.09 "HgN/A
8:30 AM50 °FPassing clouds.5 mph94%30.09 "HgN/A
8:00 AM46 °FPassing clouds.5 mph100%30.09 "HgN/A
7:30 AM45 °FFog.5 mph100%30.09 "Hg1 mi
7:00 AM43 °FQuite cool.6 mph100%30.09 "Hg1 mi
6:30 AM41 °FQuite cool.5 mph100%30.09 "Hg1 mi
6:00 AM39 °FFog.3 mph100%30.07 "Hg0 mi
5:30 AM37 °FFog.3 mph100%30.07 "Hg0 mi
5:00 AM39 °FFog.3 mph100%30.07 "Hg0 mi
4:30 AM39 °FFog.2 mph100%30.07 "Hg4 mi
4:00 AM39 °FClear.2 mph100%30.07 "Hg10 mi
3:30 AM39 °FClear.2 mph100%30.07 "Hg10 mi
3:00 AM41 °FClear.3 mph93%30.07 "Hg10 mi
2:30 AM41 °FClear.3 mph93%30.07 "Hg10 mi
2:00 AM41 °FClear.3 mph93%30.07 "Hg10 mi
1:30 AM41 °FClear.2 mph93%30.07 "Hg10 mi
1:00 AM41 °FClear.2 mph93%30.07 "Hg10 mi
12:30 AM41 °FClear.2 mph100%30.07 "Hg10 mi
12:00 AM43 °FSleet. Overcast.2 mph100%30.07 "Hg3 mi
Weather by CustomWeather, © 2015

See weather overviewHow to use our weather pages